Location: Hains Lake
(37.8540°N, 99.8578°W)
Time: 19:10:17
(UTC+00:00)

Vanguard 1 - Pass Details

Date: 25 April 2021
Orbit: 649 x 3834 km, 34.2° (Epoch: 04 May)

Event Time Altitude Azimuth Distance (km) Brightness Sun altitude
Rises 03:05:24 0° 284° (WNW) 7,627 15.9 -18.8°
Reaches altitude 10° 03:11:46 10° 274° (W) 6,829 15.2 -19.8°
Maximum altitude 03:28:30 26° 228° (SW) 5,535 13.9 -22.4°
Drops below altitude 10° 03:43:37 10° 180° (S) 6,050 13.7 -24.7°
Enters shadow 03:44:45 - 177° (S) 6,159 13.7 -24.8°
